Location: Sternwarte_Laufen
(47.9344°N, 12.9346°E)
Time: 15:32:25
(UTC+02:00)

ISS - Pass Details

Date: 12 May 2026
Orbit: 414 x 424 km, 51.6° (Epoch: 21 May)

Event Time Altitude Azimuth Distance (km) Brightness Sun altitude
Rises 00:55:42 0° 290° (WNW) 2,356 0.3 -24.0°
Reaches altitude 10° 00:57:49 10° 295° (WNW) 1,493 -0.7 -24.0°
Enters shadow 00:59:19 24° 304° (WNW) 916 -1.7 -24.0°
